{"data":{"norad_id":57377,"epoch":"2026-09-20T07:54:16.259904Z","epoch_age_seconds":139007,"freshness":"FRESH","line1":"1 57377U 23099BB  26263.32935486 -.00000094  00000+0  60841-5 0  9998","line2":"2 57377  43.0010 226.1600 0000683 249.5719 110.5059 15.27574881175912","mean_motion":15.27574881,"eccentricity":6.83e-5,"inclination_deg":43.001,"raan_deg":226.16,"arg_perigee_deg":249.5719,"mean_anomaly_deg":110.5059,"bstar":6.0841e-6,"rev_number":17591,"period_min":94.267064607486,"perigee_km":482.59580415273,"apogee_km":483.53304426728,"semimajor_km":6861.20142421,"source":"CELESTRAK","updated_at":"2026-09-21T09:00:33.621801Z"}}